| time (UTC) | temp C | wind direction | speed KPH | gust KPH | rain 1hr cm | rain 24hr cm | rain mn cm | humidity % | barometer mb |
| 20260503193020 | 15 | 180 | 6.4 | 11.3 | 0.00 | 0.03 | 0.03 | 80 | 1011.6 |
| 20260503190021 | 15 | 247 | 3.2 | 12.9 | 0.00 | 0.03 | 0.03 | 74 | 1011.5 |
| 20260503183021 | 15 | 180 | 3.2 | 8.0 | 0.00 | 0.03 | 0.03 | 71 | 1011.6 |
| 20260503180042 | 14 | 180 | 1.6 | 11.3 | 0.00 | 0.03 | 0.03 | 76 | 1011.5 |
| 20260503173042 | 13 | 315 | 4.8 | 16.1 | 0.00 | 0.03 | 0.03 | 75 | 1011.5 |
| 20260503053021 | 12 | 0.0 | 8.0 | 0.00 | 0.00 | 0.00 | 84 | 1010.3 | |
| 20260503050121 | 12 | 315 | 1.6 | 6.4 | 0.00 | 0.00 | 0.00 | 83 | 1010.3 |
| 20260503043021 | 13 | 315 | 3.2 | 12.9 | 0.00 | 0.00 | 0.00 | 83 | 1010.1 |
| 20260503040016 | 13 | 315 | 3.2 | 9.7 | 0.00 | 0.00 | 0.00 | 82 | 1009.5 |
| 20260503033021 | 13 | 0.0 | 1.6 | 0.00 | 0.00 | 0.00 | 82 | 1009.2 | |
| 20260503030021 | 14 | 0.0 | 1.6 | 0.00 | 0.00 | 0.00 | 80 | 1009.0 | |
| 20260503023016 | 15 | 0.0 | 3.2 | 0.00 | 0.00 | 0.00 | 77 | 1008.9 | |
| 20260503020021 | 16 | 0.0 | 6.4 | 0.00 | 0.00 | 0.00 | 76 | 1008.8 | |
| 20260503013020 | 16 | 202 | 1.6 | 6.4 | 0.00 | 0.00 | 0.00 | 74 | 1008.8 |
| 20260503010020 | 17 | 180 | 1.6 | 6.4 | 0.00 | 0.00 | 0.00 | 71 | 1008.8 |
| 20260503003037 | 18 | 180 | 1.6 | 8.0 | 0.00 | 0.00 | 0.00 | 69 | 1008.8 |
| 20260503000020 | 20 | 180 | 1.6 | 6.4 | 0.00 | 0.00 | 0.00 | 65 | 1008.9 |
| 20260502233021 | 19 | 202 | 1.6 | 8.0 | 0.00 | 0.00 | 0.00 | 67 | 1009.2 |
| 20260502230020 | 19 | 225 | 1.6 | 8.0 | 0.00 | 0.00 | 0.00 | 68 | 1009.7 |
| 20260502223020 | 18 | 202 | 3.2 | 8.0 | 0.00 | 0.00 | 0.00 | 71 | 1010.3 |
| 20260502220020 | 17 | 180 | 3.2 | 8.0 | 0.00 | 0.00 | 0.00 | 75 | 1011.0 |
| 20260502213020 | 16 | 202 | 1.6 | 8.0 | 0.00 | 0.00 | 0.00 | 78 | 1011.3 |
| 20260502210016 | 16 | 0.0 | 3.2 | 0.00 | 0.00 | 0.00 | 80 | 1011.5 | |
| 20260502203020 | 15 | 202 | 1.6 | 4.8 | 0.00 | 0.00 | 0.00 | 82 | 1011.9 |
| 20260502200041 | 15 | 180 | 1.6 | 4.8 | 0.00 | 0.00 | 0.00 | 82 | 1012.3 |